[[{"header":{"parameterUnit":"m.s-1","parameterCategory":1,"la1":30.2991,"la2":30.254,"lo1":-89.0895,"lo2":-89.0444,"dy":0.0017,"dx":0.0017,"nx":28,"ny":28,"refTime":"2025-06-11T09:00:00:Z","depth":0,"parameterNumber":2,"parameterNumberName":"U-component_of_WINDS"},"data":[0,0,0,0,0,0,0,0,0,0,0,0,0,0,0,0,0,0,0,0,0,0,0,0,0,0,0,0,0,0,0,0,0,0,0,0,0,0,0,0,0,0,0,0,0,0,0,0,0,0,0,0,0,0,0,0,0,0,-0.5398,-0.5398,0,-0.5423,-0.5423,-0.5423,-0.5421,-0.542,-0.542,-0.5419,-0.5446,-0.5447,-0.5448,0,0,0,0,0,0,0,0,0,0,0,0,0,-0.5349,-0.535,-0.5398,-0.5398,-0.5399,-0.5423,-0.5423,-0.5423,-0.5421,-0.542,-0.542,-0.5419,-0.5446,-0.5447,-0.5448,0,0,0,0,0,0,0,0,0,0,0,0,0,-0.5372,-0.5351,-0.5398,-0.54,-0.5401,-0.5422,-0.5423,-0.5423,-0.5421,-0.542,-0.542,-0.5419,-0.5445,-0.5447,-0.5448,-0.547,0,0,-0.5453,-0.5454,0,0,0,0,0,0,0,0,-0.5371,-0.5374,-0.54,-0.54,-0.5401,-0.5418,-0.5415,-0.5439,-0.5421,-0.5413,-0.5419,-0.5419,-0.5437,-0.544,-0.5445,-0.5471,-0.5473,-0.5454,-0.5455,-0.5455,-0.5456,0,0,0,0,0,0,0,-0.5369,-0.5373,-0.5408,-0.54,-0.5401,-0.54,-0.5403,-0.542,-0.5428,-0.5414,-0.5414,-0.5416,-0.5437,-0.5444,-0.5446,-0.5473,-0.5454,-0.5455,-0.5456,-0.5457,-0.5516,-0.5516,0,0,0,0,0,0,-0.5367,-0.5371,-0.5407,-0.5409,-0.5384,-0.5401,-0.5404,-0.5413,-0.5428,-0.543,-0.5417,-0.5416,-0.5441,-0.5444,-0.5447,-0.5472,-0.5455,-0.5457,-0.5458,-0.5515,-0.5516,-0.5516,0,0,0,0,0,0,-0.5366,-0.537,-0.5406,-0.539,-0.5394,-0.5403,-0.5413,-0.5414,-0.542,-0.543,-0.5432,-0.5422,-0.5441,-0.5445,-0.5464,-0.5473,-0.5457,-0.5459,-0.5514,-0.5515,-0.5516,-0.5523,0,0,0,0,0,0,-0.5364,-0.537,-0.5378,-0.539,-0.5395,-0.5422,-0.5413,-0.5415,-0.5423,-0.5422,-0.5436,-0.5437,-0.5441,-0.5461,-0.5465,-0.5475,-0.546,-0.5514,-0.5515,-0.5516,-0.5522,-0.5524,-0.5525,0,0,0,0,0,-0.5363,-0.538,-0.5379,-0.5383,-0.5406,-0.5423,-0.5426,-0.5429,-0.5424,-0.5432,-0.5438,-0.5437,-0.5471,-0.5463,-0.5468,-0.5478,-0.5513,-0.5514,-0.5516,-0.5521,-0.5523,-0.5525,0,0,0,0,0,0,-0.537,-0.5382,-0.538,-0.5402,-0.5411,-0.5423,-0.5433,-0.5432,-0.5444,-0.5443,-0.5447,-0.545,-0.5469,-0.5476,-0.5467,-0.5498,-0.5491,-0.5494,-0.5494,-0.5496,-0.5498,-0.5496,-0.5462,0,0,0,0,0,-0.5374,-0.5386,-0.5396,-0.5414,-0.5419,-0.5425,-0.5433,-0.5434,-0.5445,-0.5449,-0.5457,-0.5467,-0.548,-0.5488,-0.5501,-0.5523,-0.5525,-0.5531,-0.5533,-0.5535,-0.5537,-0.5547,-0.5549,-0.5521,-0.5521,-0.5521,0,0,-0.5382,-0.539,-0.5398,-0.5416,-0.5423,-0.5436,-0.5429,-0.5443,-0.5452,-0.5451,-0.5469,-0.5475,-0.5487,-0.5507,-0.5516,-0.5512,-0.5545,-0.5537,-0.5538,-0.5539,-0.5548,-0.5551,-0.5553,-0.5522,-0.5522,-0.5522,0,0,-0.5404,-0.5412,-0.5427,-0.5434,-0.5445,-0.5449,-0.5452,-0.5463,-0.5467,-0.5485,-0.5483,-0.5495,-0.5517,-0.5525,-0.5532,-0.5554,-0.5553,-0.5559,-0.5568,-0.5578,-0.558,-0.5582,-0.5589,-0.5591,-0.556,-0.556,-0.556,0,-0.5414,-0.5432,-0.5435,-0.5448,-0.5455,-0.5454,-0.5468,-0.5476,-0.5491,-0.5496,-0.5491,-0.5518,-0.5526,-0.5547,-0.5552,-0.5558,-0.5562,-0.5557,-0.558,-0.5582,-0.5584,-0.559,-0.5593,-0.5561,-0.5561,-0.5561,-0.5561,0,-0.5443,-0.5456,-0.5466,-0.5479,-0.5487,-0.5502,-0.5506,-0.5514,-0.5515,-0.5519,-0.5536,-0.5545,-0.5559,-0.5564,-0.5565,-0.5584,-0.5582,-0.5579,-0.5571,-0.5587,-0.5593,-0.5595,-0.5562,-0.5561,-0.5561,-0.5561,0,0,-0.5471,-0.5483,-0.5487,-0.5492,-0.5503,-0.5513,-0.5527,-0.5539,-0.5545,-0.5555,-0.5566,-0.5584,-0.5581,-0.5589,-0.5591,-0.5599,-0.5614,-0.5595,-0.5595,-0.5597,-0.5635,-0.5636,-0.5639,-0.5614,-0.5614,-0.5615,-0.5633,0,-0.5493,-0.5516,-0.5517,-0.5539,-0.555,-0.5547,-0.5559,-0.5567,-0.5571,-0.5581,-0.5585,-0.5597,-0.5593,-0.5597,-0.5606,-0.5611,-0.5622,-0.561,-0.5624,-0.5624,-0.562,-0.5643,-0.5645,-0.5662,-0.5636,-0.5636,-0.5636,0,-0.5522,-0.5531,-0.5552,-0.556,-0.5565,-0.5575,-0.5585,-0.5595,-0.5604,-0.5606,-0.5613,-0.5614,-0.5627,-0.5619,-0.5637,-0.5629,-0.5635,-0.5638,-0.5639,-0.564,-0.5631,-0.5643,-0.5668,-0.567,-0.564,-0.564,-0.564,0,-0.5538,-0.5556,-0.5571,-0.5575,-0.5585,-0.5592,-0.5596,-0.5604,-0.5611,-0.562,-0.5624,-0.5635,-0.5641,-0.5649,-0.5652,-0.5647,-0.567,-0.5663,-0.5671,-0.5671,-0.5676,-0.5676,-0.5701,-0.5681,-0.5681,-0.5681,-0.5681,0,-0.5562,-0.5575,-0.5578,-0.5587,-0.5601,-0.5603,-0.5617,-0.5621,-0.5627,-0.5637,-0.5636,-0.5645,-0.5649,-0.5658,-0.5661,-0.5675,-0.5678,-0.5679,-0.568,-0.5679,-0.5679,-0.5682,-0.5681,-0.5682,-0.5682,-0.5681,-0.5681,0,-0.5583,-0.5585,-0.5601,-0.5608,-0.561,-0.562,-0.5626,-0.5635,-0.5638,-0.565,-0.5653,-0.5658,-0.5669,-0.5672,-0.5686,-0.5687,-0.5703,-0.5703,-0.57,-0.57,-0.5708,-0.5707,-0.5736,-0.5739,-0.5718,-0.5718,-0.5718,0,-0.5598,-0.5607,-0.5615,-0.562,-0.5625,-0.5635,-0.5641,-0.5642,-0.5649,-0.5658,-0.5665,-0.5676,-0.5684,-0.5702,-0.5707,-0.5717,-0.5716,-0.5726,-0.5718,-0.5716,-0.5715,-0.5714,-0.5714,-0.5727,-0.5727,-0.5727,-0.5728,0,-0.5623,-0.5623,-0.5632,-0.564,-0.5647,-0.5654,-0.5661,-0.5666,-0.5669,-0.5676,-0.5686,-0.5693,-0.5706,-0.5716,-0.5726,-0.573,-0.5729,-0.573,-0.5732,-0.5731,-0.5729,-0.5729,-0.5703,-0.5729,-0.5729,-0.5729,-0.5729,-0.5729,-0.564,-0.5648,-0.5654,-0.5663,-0.5668,-0.5674,-0.5682,-0.5685,-0.5693,-0.5703,-0.5704,-0.5715,-0.5722,-0.5735,-0.574,-0.5748,-0.5746,-0.5749,-0.575,-0.5751,-0.5751,-0.5728,-0.575,-0.575,-0.575,-0.575,-0.575,0,-0.5665,-0.5668,-0.5676,-0.5685,-0.5692,-0.5689,-0.5696,-0.5702,-0.5711,-0.5718,-0.5725,-0.5737,-0.5746,-0.5751,-0.576,-0.5766,-0.5766,-0.5769,-0.5768,-0.5769,-0.5753,-0.575,-0.5769,-0.5769,-0.5769,-0.5769,-0.5769,-0.5769,-0.5678,-0.569,-0.5691,-0.5706,-0.5709,-0.5719,-0.5723,-0.5728,-0.5733,-0.5745,-0.5752,-0.5755,-0.5761,-0.577,-0.5778,-0.5779,-0.5783,-0.5785,-0.5786,-0.5772,-0.577,-0.5768,-0.5765,-0.5786,-0.5786,-0.5801,-0.5801,-0.5801]},{"header":{"parameterUnit":"m.s-1","parameterCategory":1,"la1":30.2991,"la2":30.254,"lo1":-89.0895,"lo2":-89.0444,"dy":0.0017,"dx":0.0017,"nx":28,"ny":28,"refTime":"2025-06-11T09:00:00:Z","depth":0,"parameterNumber":3,"parameterNumberName":"V-component_of_WINDS"},"data":[0,0,0,0,0,0,0,0,0,0,0,0,0,0,0,0,0,0,0,0,0,0,0,0,0,0,0,0,0,0,0,0,0,0,0,0,0,0,0,0,0,0,0,0,0,0,0,0,0,0,0,0,0,0,0,0,0,0,2.0384,2.0387,0,2.0677,2.068,2.0683,2.0748,2.0745,2.0743,2.0741,2.1048,2.1058,2.1068,0,0,0,0,0,0,0,0,0,0,0,0,0,1.9887,1.9896,2.0384,2.0387,2.0391,2.0676,2.068,2.0684,2.0748,2.0745,2.0743,2.074,2.1045,2.1057,2.1069,0,0,0,0,0,0,0,0,0,0,0,0,0,2.0134,1.9898,2.0383,2.0457,2.0466,2.0675,2.068,2.0685,2.0749,2.0745,2.0742,2.0739,2.1041,2.1056,2.1071,2.1229,0,0,2.1117,2.1124,0,0,0,0,0,0,0,0,2.0119,2.0152,2.0442,2.0452,2.0463,2.0672,2.0618,2.0868,2.0749,2.0642,2.0741,2.0738,2.0926,2.0951,2.1013,2.1243,2.1256,2.1119,2.1128,2.1134,2.1139,0,0,0,0,0,0,0,2.0102,2.014,2.05,2.0447,2.0459,2.0478,2.0509,2.0665,2.0799,2.0651,2.0656,2.069,2.0931,2.0998,2.1021,2.1261,2.1118,2.1132,2.1141,2.1147,2.1638,2.1642,0,0,0,0,0,0,2.0071,2.0125,2.0491,2.0509,2.028,2.0489,2.0525,2.0609,2.0797,2.0822,2.0692,2.0691,2.0974,2.1003,2.1032,2.1231,2.1134,2.1149,2.1157,2.1634,2.1639,2.1643,0,0,0,0,0,0,2.006,2.0103,2.0479,2.0318,2.0367,2.0501,2.0595,2.0616,2.0683,2.0828,2.0853,2.0735,2.0972,2.101,2.1179,2.1242,2.1155,2.1169,2.163,2.1636,2.1641,2.1629,0,0,0,0,0,0,2.0046,2.0099,2.0159,2.0319,2.0376,2.0619,2.0599,2.0624,2.0708,2.071,2.0875,2.0899,2.0973,2.1156,2.1194,2.1262,2.1181,2.1625,2.1633,2.1639,2.1624,2.1633,2.1641,0,0,0,0,0,2.0028,2.0145,2.0161,2.0205,2.0453,2.0623,2.0656,2.0735,2.0713,2.0775,2.0869,2.0894,2.1229,2.1173,2.1217,2.1289,2.1621,2.163,2.1639,2.162,2.1632,2.1641,0,0,0,0,0,0,1.999,2.0167,2.0187,2.0359,2.0475,2.0633,2.0714,2.0744,2.0871,2.0868,2.0964,2.1001,2.1164,2.1244,2.1179,2.1453,2.1424,2.1442,2.1395,2.1407,2.1416,2.1394,2.1194,0,0,0,0,0,2.0001,2.0122,2.0271,2.0409,2.0465,2.0579,2.0657,2.0708,2.0833,2.0883,2.0989,2.1112,2.1245,2.133,2.1461,2.1636,2.1674,2.1707,2.1716,2.1722,2.1737,2.1838,2.1855,2.1672,2.1672,2.1672,0,0,2.0027,2.0138,2.0209,2.0404,2.05,2.0625,2.0621,2.0753,2.0848,2.0904,2.107,2.1152,2.1296,2.1468,2.155,2.154,2.1796,2.1733,2.1737,2.1749,2.1848,2.1866,2.1881,2.1678,2.1677,2.1676,0,0,2.0138,2.0233,2.0358,2.0454,2.0599,2.0674,2.0704,2.0858,2.0914,2.1081,2.1126,2.1242,2.1468,2.1569,2.165,2.1799,2.1828,2.1839,2.1884,2.1981,2.1995,2.2009,2.2064,2.2082,2.1853,2.1853,2.1853,0,2.0152,2.034,2.042,2.0551,2.0636,2.069,2.0819,2.0909,2.109,2.1148,2.1133,2.1419,2.152,2.1718,2.1754,2.1817,2.1857,2.1821,2.1986,2.2001,2.2014,2.2068,2.2088,2.1853,2.1853,2.1853,2.1853,0,2.0352,2.0482,2.0566,2.0736,2.0831,2.0961,2.1062,2.1149,2.1192,2.1269,2.1441,2.1563,2.1719,2.177,2.1814,2.1975,2.1964,2.1967,2.194,2.2031,2.2083,2.2104,2.1854,2.1854,2.1854,2.1853,0,0,2.0448,2.066,2.069,2.0768,2.0932,2.1035,2.1168,2.1319,2.1392,2.1515,2.1631,2.1821,2.1824,2.1916,2.1972,2.2057,2.2169,2.205,2.2055,2.2069,2.2357,2.2355,2.2377,2.2189,2.2193,2.2197,2.2346,0,2.058,2.0816,2.0891,2.1089,2.1212,2.1265,2.1381,2.1495,2.1571,2.1688,2.1773,2.1907,2.19,2.1956,2.2042,2.2137,2.2229,2.2127,2.23,2.2305,2.2264,2.2404,2.2403,2.2538,2.2366,2.237,2.2372,0,2.0765,2.0889,2.1098,2.1246,2.1301,2.1403,2.1548,2.1658,2.179,2.184,2.1941,2.1991,2.2135,2.2098,2.2299,2.2228,2.2303,2.2361,2.2368,2.2388,2.2345,2.243,2.2583,2.2603,2.2405,2.2402,2.24,0,2.0817,2.1035,2.1189,2.1254,2.1431,2.1502,2.158,2.1708,2.1794,2.1921,2.1979,2.2122,2.2201,2.2312,2.24,2.2365,2.2593,2.2564,2.2641,2.2639,2.2688,2.2684,2.2856,2.2734,2.2733,2.2733,2.2732,0,2.0957,2.1083,2.1214,2.1309,2.1453,2.154,2.1681,2.1762,2.1875,2.1989,2.2044,2.215,2.2258,2.238,2.2449,2.2606,2.2641,2.2687,2.2705,2.2683,2.2678,2.2735,2.2729,2.2738,2.2737,2.2736,2.2735,0,2.1039,2.1132,2.1303,2.1455,2.1497,2.1596,2.1728,2.1824,2.1901,2.2045,2.2084,2.2207,2.2352,2.245,2.2637,2.2684,2.2855,2.287,2.281,2.2818,2.2891,2.2883,2.3107,2.3142,2.2994,2.2995,2.2996,0,2.1123,2.1222,2.1384,2.1462,2.1539,2.1665,2.1753,2.1842,2.1932,2.2089,2.2167,2.2315,2.2438,2.2669,2.2777,2.2921,2.2941,2.3009,2.2963,2.2939,2.2944,2.2938,2.2949,2.3017,2.3018,2.3019,2.302,0,2.1264,2.1304,2.1427,2.1566,2.1668,2.1783,2.1898,2.196,2.207,2.2168,2.2316,2.2411,2.2601,2.2749,2.2903,2.2986,2.3023,2.3033,2.3059,2.3039,2.3001,2.3024,2.2831,2.3028,2.3027,2.3026,2.3026,2.3026,2.1352,2.1441,2.1569,2.1705,2.18,2.1906,2.2003,2.2092,2.2216,2.2376,2.2422,2.2576,2.2708,2.2917,2.3003,2.3127,2.3121,2.3158,2.3168,2.3176,2.3177,2.2979,2.3155,2.3155,2.3155,2.3155,2.3155,0,2.1496,2.1581,2.1704,2.1862,2.1968,2.199,2.2119,2.2208,2.2342,2.2459,2.2579,2.275,2.2894,2.3012,2.3162,2.3238,2.3259,2.3275,2.3271,2.329,2.3173,2.3136,2.3255,2.3255,2.3255,2.3255,2.3255,2.3255,2.1584,2.1738,2.1794,2.1996,2.2081,2.223,2.2302,2.2402,2.2496,2.2683,2.2802,2.2877,2.2996,2.3154,2.3288,2.332,2.3373,2.3385,2.3421,2.3309,2.3298,2.3287,2.3253,2.3395,2.3396,2.3528,2.3529,2.353]}]]